Flag for U.S.A. Weather past 2 weeks in Sacramento, California, U.S.A.

Now
56 °F

Clear.


Feels Like: 55 °F
Forecast: 41 / 60 °F
Wind: 5 mph from Southeast

Location: Sacramento Executive Airport

Current Time: Jan 31, 2015 at 8:20:41 PM

Latest Report: Jan 31, 2015 at 7:53 PM


Visibility: 10 mi

Pressure: 30.01 "Hg

Humidity: 58%

Dew point: 41 °F

Location of SacramentoLocation

Historic Weather in Sacramento — Graph

°F

Sacramento temperature yesterday

Maximum temperature yesterday: 69 °F (at 4:53 PM)
Minimum temperature yesterday: 39 °F (at 6:58 AM)
Average temperature yesterday: 53 °F

Past Weeks' High & Low Weather Summary

 TemperatureHumidityPressure
High73 °F (Jan 31, 12:53 PM)97% (Jan 18, 11:48 AM)30.40 "Hg (Jan 18, 11:48 AM)
Low39 °F (Jan 23, 12:53 AM)23% (Jan 31, 12:53 PM)29.86 "Hg (Jan 30, 3:53 PM)
Average51 °F82%30.18 "Hg
* Reported Jan 16 6:53 PM — Jan 31 6:53 PM, Sacramento, Weather by CustomWeather, © 2014

Note: Actual official high and low records may vary slightly from our data, if they occured in-between our weather recording intervals... More about our weather records

Advertising

Sacramento weather history for previous 24 hours

 ConditionsComfort  
Time TempWeatherWind HumidityBarometerVisibility
6:53 PM
Jan 31
59 °FClear.8 mph54%29.98 "Hg10 mi
5:53 PM60 °FClear.No wind47%29.96 "Hg10 mi
4:53 PM67 °FSunny.5 mph41%29.95 "Hg10 mi
3:53 PM72 °FSunny.7 mph31%29.95 "Hg10 mi
2:53 PM73 °FSunny.15 mph23%29.95 "Hg10 mi
1:53 PM73 °FSunny.15 mph23%29.94 "Hg10 mi
12:53 PM73 °FSunny.16 mph23%29.95 "Hg10 mi
11:53 AM70 °FSunny.12 mph29%29.97 "Hg10 mi
10:53 AM63 °FSunny.9 mph34%29.99 "Hg10 mi
9:53 AM58 °FSunny.13 mph39%29.99 "Hg10 mi
8:53 AM55 °FSunny.10 mph40%29.98 "Hg10 mi
7:53 AM50 °FSunny.9 mph48%29.97 "Hg10 mi
6:53 AM47 °FClear.No wind56%29.96 "Hg10 mi
5:53 AM47 °FClear.6 mph59%29.93 "Hg10 mi
4:53 AM49 °FClear.8 mph55%29.92 "Hg10 mi
3:53 AM50 °FClear.10 mph57%29.91 "Hg10 mi
2:53 AM51 °FClear.9 mph52%29.91 "Hg10 mi
1:53 AM52 °FClear.12 mph57%29.91 "Hg10 mi
12:53 AM51 °FClear.6 mph59%29.91 "Hg10 mi
11:53 PM
Jan 30
54 °FClear.9 mph55%29.91 "Hg10 mi
10:53 PM53 °FClear.3 mph59%29.91 "Hg10 mi
9:53 PM55 °FClear.5 mph57%29.90 "Hg10 mi
8:53 PM57 °FClear.5 mph58%29.88 "Hg10 mi
Weather by CustomWeather, © 2014

See weather overviewHow to use our weather pages